Regional Weather Roundup
Issued by NWS

Home | Current Version | Previous Version | Text Only | Print | Product List | Glossary Off
Versions: 1 2 3 4 5 6 7 8 9 10 11 12 13 14 15 16 17 18 19 20 21 22 23 24 25 26 27 28 29 30 31 32 33 34 35 36 37 38 39 40 41 42 43 44 45 46 47 48 49 50

512
ASUS45 KCYS 181610
RWRWY

WYOMING REGIONAL WEATHER ROUNDUP
NATIONAL WEATHER SERVICE CHEYENNE WY
1000 AM MDT FRI AUG 18 2017

NOTE:  "FAIR" INDICATES FEW OR NO CLOUDS BELOW 12,000 FEET
WITH NO SIGNIFICANT WEATHER AND/OR OBSTRUCTIONS TO VISIBILITY.

WYZ001-181700-
YELLOWSTONE NATIONAL PARK

CITY           SKY/WX    TMP DP  RH WIND       PRES   REMARKS
LK YELLOWSTONE   N/A     56  44  64 E3        30.39S
W YELLOWSTONE  NOT AVBL

$$
WYZ002>013-054>058-071-098>099-181700-
NORTHERN WYOMING

CITY           SKY/WX    TMP DP  RH WIND       PRES   REMARKS
JACKSON        FAIR      52  32  46 VRB3      30.35S
CODY             N/A     74  43  32 N7        30.17
GREYBULL       FAIR      69  39  33 CALM      30.12F
WORLAND        FAIR      68  49  50 VRB3      30.13F
SHERIDAN       FAIR      77  42  28 E3        30.09F
BUFFALO        FAIR      78  31  17 E5        30.17S
GILLETTE       FAIR      77  39  25 N3        30.13S
HULETT         FAIR      72  41  33 SW5       30.13S
NEWCASTLE      FAIR      70  43  37 CALM      30.15S

$$
WYZ014>020-022>026-101>103-181700-
CENTRAL WYOMING

CITY           SKY/WX    TMP DP  RH WIND       PRES   REMARKS
BIG PINEY      FAIR      58  34  40 SE3       30.36F
PINEDALE       FAIR      59  34  38 SE3       30.37S
DUBOIS         FAIR      63  32  31 NE3       30.32F
LANDER           N/A    N/A N/A N/A MISG      30.22F
RIVERTON       FAIR      68  43  40 VRB5      30.23F
CASPER         FAIR      72  44  36 SW14      30.21S
DOUGLAS        FAIR      67  50  54 NW7       30.19F

$$
WYZ021-027>030-104>119-181700-
SOUTHERN WYOMING

CITY           SKY/WX    TMP DP  RH WIND       PRES   REMARKS
EVANSTON       FAIR      68  37  32 SW9       30.35F
KEMMERER         N/A     64  34  32 CALM      30.36F
FORT BRIDGER   FAIR      70  32  24 CALM      30.38S
ROCK SPRINGS   FAIR      67  35  30 CALM      30.34S
RAWLINS        FAIR      68  35  29 W12       30.32F
SARATOGA       FAIR      66  34  30 S5        30.35S
LARAMIE        FAIR      64  38  38 SE6       30.34S
CHEYENNE       FAIR      72  42  34 S6        30.27R
TORRINGTON     FAIR      69  49  48 CALM      30.15S
PINE BLUFFS    FAIR      72  41  33 CALM      30.22S

$$




USA.gov is the U.S. government's official web portal to all federal, state and local government web resources and services.